Location: Knowlton
(51.2333°N, 1.2667°E)
Time: 09:50:01
(UTC+00:00)

Meteor 2-1 Rocket - Pass Details

Date: 18 April 2021
Orbit: 828 x 909 km, 81.3° (Epoch: 05 May)

Event Time Altitude Azimuth Distance (km) Brightness Sun altitude
Rises 20:20:47 0° 188° (S) 3,473 7.1 -12.5°
Reaches altitude 10° 20:23:12 10° 188° (S) 2,549 6.4 -12.8°
Maximum altitude 20:29:02 86° 102° (ESE) 910 4.3 -13.5°
Drops below altitude 10° 20:35:00 10° 13° (NNE) 2,603 7.1 -14.2°
Sets 20:37:29 0° 14° (NNE) 3,552 7.8 -14.5°
